"Pseudo-MPEC" for C911N62

Created 2023 Mar 22 16:22:07 UT using Find_Orb

Click here for an explanation of pseudo-MPECs

 
 Astrometry: 
     C911N62*1C2023 03 18.36962408 41 36.125+30 46 12.04   ~3IA7 22.03GVNEOCPG96
     C911N62 1C2023 03 18.37480808 41 35.790+30 46 13.94   ~3IA7 22.08GVNEOCPG96
     C911N62 1C2023 03 18.37998808 41 35.304+30 46 16.39   ~3IA7 20.81GVNEOCPG96
     C911N62 1C2023 03 18.38517908 41 34.840+30 46 16.75   ~3IA7 22.15GVNEOCPG96

Station data:
(G96) Mt. Lemmon Survey  (N32.442751 W110.788720)  US/Arizona.  Observers T.
   A. Pruyne, B. M. Africano, E. J. Christensen, G. A. Farneth, D. C. Fuls,
   A. R. Gibbs, A. D. Grauer, H. Gröller, J. A. Johnson, R. A. Kowalski, S.
   M. Larson, G. J. Leonard, D. Rankin, R. L. Seaman, F. C. Shelly, K. W.
   Wierzchoś. 1.5-m reflector + 10K CCD.

Orbital elements:  C911N62
   Perihelion 2023 Jun 29.92013 +/- 279 TT = 22:04:59 (JD 2460125.42013)
Epoch 2023 Mar 18.0 TT = JDT 2460021.5   Earth MOID: 0.0135      AutoNEOCP
M 264.34582442 +/- 100              (J2000 ecliptic)
n   0.92045858 +/- 0.569            Peri.  154.55796 +/- 44
a   1.04664615 +/- 0.431            Node   120.98967 +/- 24
e   0.0637731 +/- 0.201             Incl.    1.42146 +/- 59
P   1.07/391.10d           H 25.12  G  0.15   U 12.4  SR
q 0.97989822 +/- 0.995    Q 1.11339408 +/- 8.31
From 4 observations 2023 Mar. 18 (22.4 min); mean residual 0".50
Residuals in arcseconds: 
230318 G96  .57-  .25-    230318 G96  .12+  .77+    
230318 G96  .79+  .02-    230318 G96  .33-  .51-    

Ephemerides (geocentric):
Date (UTC) HH   RA             Dec           delta  r     elong  mag " sig PA
---- --------  ------------   ------------  ------ ------ -----  --- --------
2023 03 22 16  08 37 33.837   +31 19 38.00  .10082 1.0525 121.4 22.3  768 170
2023 03 22 17  08 37 32.008   +31 19 53.74  .10084 1.0524 121.4 22.3  776 170
2023 03 22 18  08 37 30.189   +31 20 09.41  .10086 1.0524 121.3 22.3  784 170
2023 03 22 19  08 37 28.381   +31 20 25.02  .10088 1.0523 121.3 22.3  793 170
2023 03 22 20  08 37 26.584   +31 20 40.57  .10090 1.0523 121.2 22.3  801 171
2023 03 22 21  08 37 24.798   +31 20 56.06  .10092 1.0522 121.2 22.3  809 171
2023 03 22 22  08 37 23.023   +31 21 11.48  .10094 1.0522 121.1 22.3  818 171
2023 03 22 23  08 37 21.258   +31 21 26.84  .10096 1.0522 121.1 22.3  826 171
2023 03 23 00  08 37 19.504   +31 21 42.15  .10098 1.0521 121.0 22.3  835 171
2023 03 23 01  08 37 17.762   +31 21 57.38  .10100 1.0521 121.0 22.3  843 171
2023 03 23 02  08 37 16.030   +31 22 12.56  .10102 1.0520 121.0 22.3  852 172
2023 03 23 03  08 37 14.308   +31 22 27.68  .10104 1.0520 120.9 22.3  861 172
2023 03 23 04  08 37 12.598   +31 22 42.73  .10106 1.0519 120.9 22.3  869 172
2023 03 23 05  08 37 10.898   +31 22 57.73  .10108 1.0519 120.8 22.3  878 172
2023 03 23 06  08 37 09.209   +31 23 12.66  .10110 1.0518 120.8 22.3  887 172
2023 03 23 07  08 37 07.531   +31 23 27.53  .10112 1.0518 120.7 22.3  895 173
2023 03 23 08  08 37 05.864   +31 23 42.34  .10114 1.0518 120.7 22.3  904 173
2023 03 23 09  08 37 04.207   +31 23 57.10  .10117 1.0517 120.6 22.3  913 173
2023 03 23 10  08 37 02.562   +31 24 11.79  .10119 1.0517 120.6 22.3  922 173
2023 03 23 11  08 37 00.927   +31 24 26.41  .10121 1.0516 120.5 22.3  931 173
2023 03 23 12  08 36 59.302   +31 24 40.98  .10123 1.0516 120.5 22.3  940 173
2023 03 23 13  08 36 57.689   +31 24 55.49  .10125 1.0515 120.4 22.3  949 174
2023 03 23 14  08 36 56.086   +31 25 09.94  .10127 1.0515 120.4 22.3  958 174
2023 03 23 15  08 36 54.494   +31 25 24.33  .10129 1.0514 120.3 22.3  967 174
2023 03 23 16  08 36 52.912   +31 25 38.66  .10131 1.0514 120.3 22.3  976 174
2023 03 23 17  08 36 51.342   +31 25 52.93  .10133 1.0514 120.2 22.3  985 174
2023 03 23 18  08 36 49.782   +31 26 07.14  .10135 1.0513 120.2 22.3  994 174
2023 03 23 19  08 36 48.232   +31 26 21.29  .10137 1.0513 120.2 22.3 1003 175
2023 03 23 20  08 36 46.693   +31 26 35.38  .10139 1.0512 120.1 22.3 1012 175
2023 03 23 21  08 36 45.165   +31 26 49.41  .10141 1.0512 120.1 22.3 1022 175
2023 03 23 22  08 36 43.648   +31 27 03.38  .10143 1.0511 120.0 22.3 1031 175
2023 03 23 23  08 36 42.141   +31 27 17.29  .10145 1.0511 120.0 22.3 1040 175
2023 03 24 00  08 36 40.645   +31 27 31.14  .10147 1.0510 119.9 22.3 1049 175
2023 03 24 01  08 36 39.160   +31 27 44.94  .10149 1.0510 119.9 22.3 1059 176
2023 03 24 02  08 36 37.685   +31 27 58.68  .10151 1.0510 119.8 22.3 1068 176
2023 03 24 03  08 36 36.221   +31 28 12.35  .10153 1.0509 119.8 22.3 1078 176
2023 03 24 04  08 36 34.767   +31 28 25.97  .10155 1.0509 119.7 22.3 1087 176
2023 03 24 05  08 36 33.324   +31 28 39.53  .10157 1.0508 119.7 22.3 1097 176
2023 03 24 06  08 36 31.892   +31 28 53.03  .10159 1.0508 119.6 22.3 1106 176
2023 03 24 07  08 36 30.470   +31 29 06.48  .10161 1.0507 119.6 22.3 1116 176
2023 03 24 08  08 36 29.059   +31 29 19.86  .10163 1.0507 119.5 22.3 1125 177
2023 03 24 09  08 36 27.658   +31 29 33.19  .10165 1.0506 119.5 22.3 1135 177
2023 03 24 10  08 36 26.268   +31 29 46.46  .10167 1.0506 119.5 22.3 1145 177
2023 03 24 11  08 36 24.888   +31 29 59.68  .10169 1.0506 119.4 22.3 1154 177
2023 03 24 12  08 36 23.519   +31 30 12.83  .10171 1.0505 119.4 22.3 1164 177
2023 03 24 13  08 36 22.160   +31 30 25.93  .10173 1.0505 119.3 22.3 1174 177
2023 03 24 14  08 36 20.812   +31 30 38.97  .10175 1.0504 119.3 22.3 1184 177
2023 03 24 15  08 36 19.475   +31 30 51.95  .10177 1.0504 119.2 22.3 1193 177